sat.trackr.live / text

‹ back to catalog

KAZEOSAT 2

NORAD 40010 · 2014-033A

PAYLOAD ACTIVE UNKNOWN

§ Identity

Operator
Country
KAZ
Launch date
2014-06-19
Launch site
DLS
Launch vehicle
Mass (kg)
RCS (m²)
0.40

Purposes: earth_obs

External: N2YO · Heavens-Above · Gunter

§ Orbital elements

Epoch: 2026-05-25T04:37:20.214048Z

Period
96.94 min
Inclination
97.5427°
Eccentricity
0.0009780
Mean motion
14.85440309 rev/d
Perigee alt
605.4 km
Apogee alt
619.0 km
Semi-major
6,990.3 km
B*
1.1857e-4
RAAN
346.0183°
Arg perigee
42.8037°
Mean anomaly
317.3939°
Rev number
64,554

§ Raw data

KAZEOSAT 21 40010U 14033A   26145.19259507  .00000973  00000+0  11857-3 0  99952 40010  97.5427 346.0183 0009780  42.8037 317.3939 14.85440309645541

JSON: /api/v1/satellites/40010 · /tle

For live sub-satellite position, see the globe view (requires WebGL).

§ Visibility from observer

Set your observer location to see the next 7 days of passes ≥ 10°. The values pass through the URL so the page stays shareable.

No JS? Fill the form by hand. The geolocation button needs JavaScript.